OPS 4682 DEB, 55119

Orbit data source: Space-Track

OPS 4682 DEB, 55119 is space debris in LEO originally from a launch on Sat, 03 Apr 1965 UTC launched from the Air Force Western Test Range (AFWTR). Debris objects in space refer to the collection of defunct objects orbiting the Earth. Examples of debris include non-operational satellites, rocket bodies, and fragments generated from explosions, collisions, or faulty payload assembly.

Loading next visibility...
Identifier
55119, 1965-027HJ
Orbit
LEO
Country
Flag of USUS
Related business
Manufacturer
Unknown
Mission
Spacecraft
Bus & Motor
Unknown
Mass
Unknown
Launch date (UTC)
1965-04-03 (61 years ago)
Launch vehicle
Unknown
Launch site
Air Force Western Test Range (AFWTR)
Object type
Payload
Rocket body
Debris
Shape & HBR
Unknown shape, 0.1 m
Radar Cross Section
Medium (>0.1 m² and <1 m²)

Expand to show TLE details & history
Last TLE update: 6 days ago

TLE from 6 days ago
0 OPS 4682 DEB
1 55119U 65027HJ  26257.76577332  .00000536  00000-0  18420-2 0  9994
2 55119  90.2517   8.3772 0022911 219.6544 140.2902 12.96685517341534
Epoch: 2026-09-14T18:22Z
TLE epoch observation values (Epoch: 2026-09-14T18:22:42.814Z)
Latitude
Longitude
98.95744°
Altitude
1,291.487 km
Speed
7.204 km/s
True Right ascension
00h 33m 30s
True Declination
0° 00' 00"
Sunlit
Object was in full shadow at epoch
Visualization orbit readout
Latitude
Unknown
Longitude
Unknown
Altitude
Unknown
Speed
Unknown
Apparent Right ascension
Unknown
Apparent Declination
Unknown
Sunlit
N/A
Visualization observer readout
Local Sidereal Time
14:53:11
Azimuth
Unknown
Elevation
Unknown
Doppler factor
Unknown
Orbital elements
Apogee altitude
1,289.76 km
Perigee altitude
1,254.705 km
Semi-major axis
7,650.37 km
Eccentricity
0.00229
Inclination
90.2517°
RAAN
8.3772°
Arg. of periapsis
219.6544°
True anomaly
140.45757°
Mean anomaly
140.2902°
Eccentric anomaly
140.37392°
Mean motion
3.24354 °/min
Orbital period
110.99 mins
BSTAR
0.001842
Loading maneuver chart data...
Computing Atmospheric mass density...
Loading historical data...
Loading historical data...
Loading historical data...
Loading historical data...
Loading historical data...
Loading historical data...
Loading historical data...

Documentation

Showing up to 5 results
|